Mountain Home, AR

4:41 AM CDT on April 21, 2018 (GMT -0500)
Baxter County Regional

Weather History for KBPK - December, 2013

Change the Weather History Date:

Monday, December 2, 2013

  Actual Average (KFLP) Record (KFLP)
Temperature  
Mean Temperature 51 °F -  
Max Temperature 63 °F 52 °F 77 °F (2012)
Min Temperature 39 °F 33 °F 21 °F (2005)
Degree Days  
Heating Degree Days 14    
Growing Degree Days 1 (Base 50)    
Moisture  
Dew Point 44 °F    
Average Humidity 90    
Maximum Humidity 100    
Minimum Humidity 52    
Precipitation  
Precipitation 0.00 in - - ()
Sea Level Pressure  
Sea Level Pressure 29.80 in    
Wind  
Wind Speed 1 mph (SSE)    
Max Wind Speed 6 mph    
Max Gust Speed -    
Visibility 3 miles    
Events Fog    
Averages and records for this station are not official NWS values.
T = Trace of Precipitation, MM = Missing Value Source: NWS Daily Summary

Daily Weather History Graph

Daily Weather History Graph

Search for Another Location

Airport or City:

Astronomy

Dec. 02, 2013 Rise Set
Actual Time 7:04 AM CST 4:54 PM CST
Civil Twilight 6:35 AM CST 5:23 PM CST
Nautical Twilight 6:03 AM CST 5:54 PM CST
Astronomical Twilight 5:32 AM CST 6:26 PM CST
Moon 6:30 AM CST (12/2) 4:57 PM CST (12/2)
Length of Visible Light 10h 47m
Length of Day
9h 50m
Waning Crescent, 0% of the Moon is Illuminated
Dec 2
Waning Crescent
Dec 2
New
Dec 9
First Quarter
Dec 17
Full
Dec 25
Last Quarter

Hourly Weather History & Observations

Time (CST) Temp. Windchill Dew Point Humidity Pressure Visibility Wind Dir Wind Speed Gust Speed Precip Events Conditions
12:06 AM 46.4 °F - 44.6 °F 93% 29.88 in 4.0 mi Calm Calm - N/A   Partly Cloudy
12:16 AM 46.4 °F - 44.6 °F 93% 29.87 in 1.8 mi Calm Calm - N/A   Partly Cloudy
12:38 AM 46.4 °F - 44.6 °F 93% 29.86 in 3.0 mi Calm Calm - N/A   Partly Cloudy
12:53 AM 46.9 °F - 45.0 °F 93% 29.85 in 5.0 mi Calm Calm - N/A   Clear
1:29 AM 44.6 °F - 42.8 °F 93% 29.86 in 1.8 mi Calm Calm - N/A   Clear
1:32 AM 44.6 °F - 42.8 °F 93% 29.86 in 1.0 mi Calm Calm - N/A   Mist
1:38 AM 42.8 °F - 41.0 °F 93% 29.86 in 0.5 mi Calm Calm - N/A Fog Fog
1:46 AM 42.8 °F - 39.2 °F 87% 29.86 in 0.2 mi Calm Calm - N/A Fog Fog
1:53 AM 41.0 °F - 39.0 °F 93% 29.86 in 0.2 mi Calm Calm - N/A Fog Fog
2:17 AM 42.8 °F 41.1 °F 39.2 °F 87% 29.85 in 0.2 mi North 3.5 mph - N/A Fog Fog
2:33 AM 42.8 °F - 42.8 °F 100% 29.85 in 0.5 mi Calm Calm - N/A Fog Fog
2:42 AM 42.8 °F 41.1 °F 42.8 °F 100% 29.85 in 0.2 mi North 3.5 mph - N/A Fog Fog
2:53 AM 44.1 °F - 43.0 °F 96% 29.84 in 0.2 mi Calm Calm - N/A Fog Fog
2:59 AM 44.6 °F - 44.6 °F 100% 29.85 in 0.8 mi Calm Calm - N/A   Mist
3:06 AM 44.6 °F - 44.6 °F 100% 29.84 in 1.8 mi Calm Calm - N/A   Scattered Clouds
3:14 AM 46.4 °F - 44.6 °F 93% 29.84 in 2.0 mi Calm Calm - N/A   Partly Cloudy
3:24 AM 42.8 °F 41.1 °F 42.8 °F 100% 29.84 in 0.8 mi South 3.5 mph - N/A   Mist
3:28 AM 42.8 °F 41.1 °F 41.0 °F 93% 29.84 in 0.2 mi South 3.5 mph - N/A Fog Fog
3:34 AM 41.0 °F - 39.2 °F 93% 29.84 in 0.2 mi Calm Calm - N/A Fog Fog
3:45 AM 39.2 °F - 39.2 °F 100% 29.83 in 0.2 mi Calm Calm - N/A Fog Fog
3:53 AM 41.0 °F - 39.0 °F 93% 29.83 in 0.2 mi Calm Calm - N/A Fog Fog
4:45 AM 44.6 °F - 42.8 °F 93% 29.81 in 0.2 mi Calm Calm - N/A Fog Fog
4:53 AM 44.1 °F - 43.0 °F 96% 29.81 in 0.5 mi Calm Calm - N/A Fog Fog
5:00 AM 44.6 °F - 44.6 °F 100% 29.82 in 1.0 mi Calm Calm - N/A   Overcast
5:06 AM 44.6 °F - 44.6 °F 100% 29.82 in 3.0 mi Calm Calm - N/A   Overcast
5:35 AM 44.6 °F - 44.6 °F 100% 29.82 in 2.5 mi Calm Calm - N/A   Overcast
5:50 AM 44.6 °F 43.1 °F 42.8 °F 93% 29.81 in 1.8 mi North 3.5 mph - N/A   Overcast
5:53 AM 45.0 °F 43.5 °F 43.0 °F 93% 29.81 in 1.8 mi North 3.5 mph - N/A   Overcast
6:14 AM 44.6 °F - 44.6 °F 100% 29.82 in 2.0 mi Calm Calm - N/A   Overcast
6:38 AM 46.4 °F - 44.6 °F 93% 29.82 in 1.5 mi Calm Calm - N/A   Overcast
6:53 AM 46.0 °F - 44.1 °F 93% 29.82 in 1.2 mi Calm Calm - N/A   Overcast
7:35 AM 44.6 °F 43.1 °F 44.6 °F 100% 29.81 in 0.5 mi SSE 3.5 mph - N/A Fog Fog
7:46 AM 44.6 °F - 44.6 °F 100% 29.81 in 0.2 mi Calm Calm - N/A Fog Fog
7:53 AM 44.1 °F - 43.0 °F 96% 29.81 in 0.2 mi Calm Calm - N/A Fog Fog
8:03 AM 44.6 °F - 44.6 °F 100% 29.80 in 0.2 mi Calm Calm - N/A Fog Fog
8:10 AM 44.6 °F - 44.6 °F 100% 29.80 in 0.2 mi Calm Calm - N/A Fog Fog
8:26 AM 44.6 °F - 44.6 °F 100% 29.81 in 0.5 mi Calm Calm - N/A Fog Fog
8:36 AM 46.4 °F - 44.6 °F 93% 29.81 in 1.0 mi Calm Calm - N/A   Overcast
8:45 AM 46.4 °F - 46.4 °F 100% 29.80 in 1.8 mi Calm Calm - N/A   Overcast
8:53 AM 46.9 °F - 46.0 °F 97% 29.80 in 2.5 mi Calm Calm - N/A   Overcast
9:09 AM 48.2 °F - 46.4 °F 93% 29.80 in 3.0 mi Calm Calm - N/A   Overcast
9:53 AM 50.0 °F - 48.0 °F 93% 29.80 in 4.0 mi Calm Calm - N/A   Overcast
10:53 AM 54.0 °F - 48.0 °F 80% 29.79 in 6.0 mi SSW 3.5 mph - N/A   Haze
11:53 AM 57.0 °F - 46.0 °F 67% 29.75 in 7.0 mi SSW 4.6 mph - N/A   Overcast
12:24 PM 57.2 °F - 42.8 °F 59% 29.74 in 8.0 mi Calm Calm - N/A   Scattered Clouds
12:53 PM 57.9 °F - 45.0 °F 62% 29.73 in 8.0 mi South 3.5 mph - N/A   Clear
1:53 PM 59.0 °F - 45.0 °F 60% 29.70 in 8.0 mi WSW 4.6 mph - N/A   Clear
2:53 PM 63.0 °F - 45.0 °F 52% 29.67 in 8.0 mi Variable 4.6 mph - N/A   Clear
3:53 PM 62.1 °F - 44.1 °F 52% 29.67 in 9.0 mi Calm Calm - N/A   Clear
4:53 PM 55.0 °F - 45.0 °F 69% 29.68 in 7.0 mi ENE 3.5 mph - N/A   Clear
5:53 PM 53.1 °F - 44.1 °F 71% 29.69 in 8.0 mi ENE 4.6 mph - N/A   Clear
6:53 PM 52.0 °F - 44.1 °F 74% 29.70 in 8.0 mi East 3.5 mph - N/A   Clear
7:53 PM 50.0 °F - 44.1 °F 80% 29.72 in 8.0 mi SSE 3.5 mph - N/A   Clear
8:53 PM 48.9 °F - 45.0 °F 86% 29.71 in 7.0 mi SSE 3.5 mph - N/A   Clear
9:53 PM 46.9 °F - 45.0 °F 93% 29.69 in 6.0 mi SE 4.6 mph - N/A   Clear
10:53 PM 46.9 °F - 45.0 °F 93% 29.68 in 6.0 mi SSE 5.8 mph - N/A   Clear
11:53 PM 46.0 °F 43.9 °F 44.1 °F 93% 29.70 in 5.0 mi SSE 4.6 mph - N/A   Clear